Alexandria Esle, LA

7:41 AM CDT on September 25, 2017 (GMT -0500)
Alexandria Esler Regional

Weather History for KESF - January, 2014

Change the Weather History Date:

Wednesday, January 22, 2014

  Actual Average Record
Temperature  
Mean Temperature 40 °F -  
Max Temperature 57 °F 61 °F 75 °F (1997)
Min Temperature 24 °F 41 °F 19 °F (1961)
Degree Days  
Heating Degree Days 24    
Moisture  
Dew Point 24 °F    
Average Humidity 58    
Maximum Humidity 85    
Minimum Humidity 23    
Precipitation  
Precipitation 0.00 in - - ()
Sea Level Pressure  
Sea Level Pressure 30.20 in    
Wind  
Wind Speed 1 mph (SSE)    
Max Wind Speed 6 mph    
Max Gust Speed -    
Visibility 10 miles    
Events      
Averages and records for this station are not official NWS values.
T = Trace of Precipitation, MM = Missing Value Source: NWS Daily Summary

Daily Weather History Graph

Daily Weather History Graph

Search for Another Location

Airport or City:

Trip Planner

Search our weather history database for the weather conditions in past years. The results will help you decide how hot, cold, wet, or windy it might be!

Date:

Astronomy

Jan. 22, 2014 Rise Set
Actual Time 7:06 AM CST 5:35 PM CST
Civil Twilight 6:40 AM CST 6:01 PM CST
Nautical Twilight 6:11 AM CST 6:30 PM CST
Astronomical Twilight 5:42 AM CST 6:59 PM CST
Moon 11:40 PM CST (1/22) 10:33 AM CST (1/22)
Length of Visible Light 11h 20m
Length of Day
10h 28m
Waning Gibbous, 65% of the Moon is Illuminated
Jan 22
Waning Gibbous
Jan 23
Last Quarter
Jan 30
New
Feb 6
First Quarter
Feb 14
Full

Hourly Weather History & Observations

Time (CST) Temp. Windchill Dew Point Humidity Pressure Visibility Wind Dir Wind Speed Gust Speed Precip Events Conditions
12:53 AM 28.0 °F - 21.0 °F 75% 30.25 in 10.0 mi Calm Calm - N/A   Clear
1:53 AM 28.0 °F - 21.0 °F 75% 30.25 in 10.0 mi Calm Calm - N/A   Clear
2:53 AM 26.1 °F - 21.0 °F 81% 30.25 in 10.0 mi Calm Calm - N/A   Clear
3:53 AM 25.0 °F - 21.0 °F 85% 30.23 in 10.0 mi Calm Calm - N/A   Clear
4:53 AM 25.0 °F - 19.9 °F 81% 30.23 in 10.0 mi Calm Calm - N/A   Clear
5:53 AM 24.1 °F - 19.9 °F 84% 30.22 in 10.0 mi Calm Calm - N/A   Clear
6:53 AM 24.1 °F - 19.9 °F 84% 30.22 in 10.0 mi Calm Calm - N/A   Clear
7:53 AM 26.1 °F - 21.9 °F 84% 30.24 in 10.0 mi Calm Calm - N/A   Clear
8:53 AM 34.0 °F 29.8 °F 23.0 °F 64% 30.25 in 10.0 mi SE 4.6 mph - N/A   Clear
9:53 AM 39.9 °F 36.7 °F 21.9 °F 49% 30.26 in 10.0 mi SE 4.6 mph - N/A   Clear
10:53 AM 45.0 °F 43.5 °F 19.9 °F 37% 30.25 in 10.0 mi SSE 3.5 mph - N/A   Clear
11:53 AM 50.0 °F - 19.0 °F 29% 30.22 in 10.0 mi Variable 3.5 mph - N/A   Clear
12:53 PM 54.0 °F - 19.0 °F 25% 30.18 in 10.0 mi Variable 4.6 mph - N/A   Clear
1:53 PM 57.0 °F - 19.0 °F 23% 30.16 in 10.0 mi South 4.6 mph - N/A   Clear
2:53 PM 57.9 °F - 19.9 °F 23% 30.13 in 10.0 mi Calm Calm - N/A   Clear
3:53 PM 57.9 °F - 21.9 °F 25% 30.14 in 10.0 mi SW 5.8 mph - N/A   Clear
4:53 PM 55.9 °F - 23.0 °F 28% 30.14 in 10.0 mi South 4.6 mph - N/A   Clear
5:53 PM 48.9 °F - 27.0 °F 43% 30.14 in 6.0 mi Calm Calm - N/A   Haze
6:53 PM 45.0 °F - 28.9 °F 53% 30.14 in 10.0 mi Calm Calm - N/A   Clear
7:53 PM 43.0 °F - 30.9 °F 62% 30.14 in 10.0 mi Calm Calm - N/A   Clear
8:53 PM 41.0 °F - 32.0 °F 70% 30.16 in 10.0 mi Calm Calm - N/A   Clear
9:53 PM 41.0 °F - 32.0 °F 70% 30.17 in 10.0 mi Calm Calm - N/A   Clear
10:53 PM 41.0 °F - 30.9 °F 67% 30.17 in 10.0 mi Calm Calm - N/A   Clear
11:53 PM 37.9 °F - 32.0 °F 79% 30.18 in 10.0 mi Calm Calm - N/A   Clear